Weather History for Naples, FL

Change the Weather History Date:

Friday, January 13, 2012

  Actual Average Record
Temperature  
Mean Temperature 65 °F 64 °F  
Max Temperature 71 °F 75 °F 85 °F (1972)
Min Temperature 59 °F 54 °F 27 °F (1981)
Degree Days  
Heating Degree Days 0 4  
Month to date heating degree days 51 46  
Since 1 July heating degree days 76 124  
Cooling Degree Days 0 3  
Month to date cooling degree days 17 39  
Year to date cooling degree days 17 39  
Growing Degree Days 15 (Base 50)    
Moisture  
Dew Point 56 °F    
Average Humidity 79    
Maximum Humidity 100    
Minimum Humidity 57    
Precipitation  
Precipitation 0.00 in 0.05 in 1.18 in (1948)
Month to date precipitation 0.02 0.70  
Year to date precipitation 0.02 0.70  
Snow  
Snow 0.00 in - - ()
Month to date snowfall 0.0  
Since 1 July snowfall 0.0  
Snow Depth 0.00 in    
Sea Level Pressure  
Sea Level Pressure 30.12 in    
Wind  
Wind Speed 7 mph (NW)    
Max Wind Speed 14 mph    
Max Gust Speed 17 mph    
Visibility 10 miles    
Events      
T = Trace of Precipitation, MM = Missing Value Source: NWS Daily Summary

Daily Weather History Graph

Daily Weather History Graph

Search for Another Location

Airport:

Trip Planner

Search our weather history database for the weather conditions in past years. The results will help you decide how hot, cold, wet, or windy it might be!

Date:

Astronomy

Jan. 13, 2012 Rise Set
Actual Time 7:16 AM EST 5:55 PM EST
Civil Twilight 6:51 AM EST 6:20 PM EST
Nautical Twilight 6:22 AM EST 6:48 PM EST
Astronomical Twilight 5:54 AM EST 7:16 PM EST
Moon 10:31 PM EST (1/13) 10:01 AM EST (1/13)
Length of Visible Light 11h 28m
Length of Day
10h 39m
Waning Gibbous, 79% of the Moon is Illuminated
Jan 13
Waning Gibbous
Jan 16
Last Quarter
Jan 23
New
Jan 30
First Quarter
Feb 7
Full

Hourly Weather History & Observations

Time (EST) Temp. Dew Point Humidity Pressure Visibility Wind Dir Wind Speed Gust Speed Precip Events Conditions
12:53 AM 64.9 °F 64.0 °F 97% 30.01 in 10.0 mi SW 3.5 mph - N/A   Partly Cloudy
1:53 AM 66.0 °F 64.0 °F 93% 30.02 in 10.0 mi SW 5.8 mph - N/A   Clear
2:53 AM 66.9 °F 64.0 °F 90% 30.03 in 10.0 mi SSW 6.9 mph - N/A   Scattered Clouds
3:53 AM 66.0 °F 64.0 °F 93% 30.03 in 10.0 mi SSW 4.6 mph - N/A   Clear
4:53 AM 66.9 °F 64.0 °F 90% 30.03 in 10.0 mi SW 3.5 mph - N/A   Overcast
5:53 AM 66.9 °F 62.1 °F 84% 30.07 in 10.0 mi NNW 5.8 mph - N/A   Overcast
6:53 AM 64.9 °F 60.1 °F 84% 30.08 in 9.0 mi NNW 5.8 mph - N/A   Scattered Clouds
7:53 AM 64.0 °F 59.0 °F 84% 30.10 in 8.0 mi North 6.9 mph - N/A   Scattered Clouds
8:53 AM 64.0 °F 57.0 °F 78% 30.13 in 9.0 mi North 8.1 mph - N/A   Partly Cloudy
9:53 AM 66.0 °F 57.0 °F 73% 30.15 in 10.0 mi North 6.9 mph - N/A   Clear
10:53 AM 66.9 °F 55.9 °F 68% 30.15 in 10.0 mi NNE 5.8 mph - N/A   Clear
10:54 AM 66.2 °F 55.4 °F 68% 30.16 in 10.0 mi NNE 6.9 mph - N/A   Clear
11:53 AM 69.1 °F 54.0 °F 58% 30.13 in 10.0 mi North 6.9 mph - N/A   Clear
12:53 PM 70.0 °F 54.0 °F 57% 30.11 in 10.0 mi WNW 5.8 mph - N/A   Clear
1:53 PM 70.0 °F 54.0 °F 57% 30.11 in 10.0 mi WNW 12.7 mph - N/A   Clear
2:53 PM 66.9 °F 53.1 °F 61% 30.11 in 10.0 mi WNW 12.7 mph - N/A   Scattered Clouds
3:53 PM 66.9 °F 53.1 °F 61% 30.11 in 10.0 mi NW 8.1 mph - N/A   Scattered Clouds
4:53 PM 64.9 °F 52.0 °F 63% 30.13 in 10.0 mi NW 10.4 mph - N/A   Scattered Clouds
5:53 PM 63.0 °F 53.1 °F 70% 30.14 in 10.0 mi NW 9.2 mph - N/A   Scattered Clouds
6:53 PM 63.0 °F 53.1 °F 70% 30.15 in 10.0 mi NW 8.1 mph - N/A   Scattered Clouds
7:53 PM 63.0 °F 53.1 °F 70% 30.17 in 10.0 mi NNW 4.6 mph - N/A   Overcast
8:53 PM 62.1 °F 51.1 °F 67% 30.18 in 10.0 mi NNW 4.6 mph - N/A   Mostly Cloudy
9:53 PM 61.0 °F 50.0 °F 67% 30.20 in 10.0 mi NNW 4.6 mph - N/A   Mostly Cloudy
10:53 PM 60.1 °F 46.0 °F 60% 30.21 in 10.0 mi NNE 8.1 mph - N/A   Overcast
11:53 PM 59.0 °F 45.0 °F 60% 30.21 in 10.0 mi North 4.6 mph - N/A   Overcast